OpenBCM V1.13 (Linux)

Packet Radio Mailbox

DB0FHN

[JN59NK Nuernberg]

 Login: GUEST





  
I0OJJ  > AMSAT    30.08.26 03:00l 331 Lines 15647 Bytes #999 (0) @ WW
BID : 4O0_IR0EQ
Read: OE5RCO GUEST DJ6UX
Subj: 2Line Orbital Elements
Path: DB0FHN<OE2XZR<OE6XPE<DB0RKB<OK0NAG<F3KT<VA2RIZ<VK2RZ<IR0AAB<IR0EQ
Sent: 260830/0027z @:IR0EQ.ITA.EU [Rome] $:4O0_IR0EQ

>From i0ojj@rgate.ampr.org Sun Aug 30 02:27:16 2026
Received: from rgate.ampr.org by rgate.ampr.org (JNOS2.0q.1) with SMTP
	id AA6048 ; Sun, 30 Aug 2026 02:27:16 +0200
Received: by rgate.ampr.org with SMTP
	id AA6045 ; Sun, 30 Aug 2026 02:27:02 +0200
Message-Id: <6046@rgate.ampr.org>
>From: i0ojj@rgate.ampr.org

SB KEPS @ AMSAT  $ORB26242.1
2Line Orbital Elements 26242.AMSAT

QST de W1STR

AMSAT Orbital Elements for Amateur Satellites in TLE Format
>From Orbital Analysis Office
New England Sci-Tech STEM Education Center
Natick MA August 30, 2026
To all radio amateurs


These element sets describe the orbits of various satellites 
in use by the amateur radio community. For details see:
www.amsat.org/keplerian-elements-formats/

A daily update of element sets is available at:
www.amsat.org/tle/daily-bulletin.txt
or without bulletin text:
www.amsat.org/tle/dailytle.txt


AO-07
1 07530U 74089B   26241.82147597 -.00000036  00000-0  64574-4 0  9991
2 07530 101.9921 255.8381 0012208 352.6074 182.5139 12.53699357369740
UO-11
1 14781U 84021B   26241.84793484  .00001403  00000-0  14776-3 0  9994
2 14781  97.8139 206.6379 0006336 308.7530  51.3121 14.90956157268104
LO-19
1 20442U 90005G   26241.50833716  .00000078  00000-0  44685-4 0  9990
2 20442  98.8837 265.3279 0011401 356.8302   3.2808 14.34140748912903
AO-27
1 22825U 93061C   26241.62922476  .00000079  00000-0  46948-4 0  9992
2 22825  98.6820 308.9938 0007386 240.9451 119.0993 14.30958266717509
FO-29
1 24278U 96046B   26241.50427804  .00000000  00000-0  38774-4 0  9996
2 24278  98.5184  80.3261 0348806 266.1691  89.9510 13.53277519483088
GO-32
1 25397U 98043D   26241.74896028  .00000031  00000-0  33713-4 0  9994
2 25397  99.0133 236.3843 0001789  41.8009 318.3306 14.24440430461808
ISS
1 25544U 98067A   26241.65974551  .00005709  00000-0  11198-3 0  9991
2 25544  51.6318 296.4399 0004994  88.0334 272.1226 15.48929126583140
NO-44
1 26931U 01043C   26241.84558799  .00000073  00000-0  58013-4 0  9990
2 26931  67.0501  53.7526 0005650 270.8205  89.2249 14.31979169300995
SO-50
1 27607U 02058C   26241.51823997  .00000869  00000-0  11977-3 0  9997
2 27607  64.5506 262.0764 0072858 249.0160 110.3141 14.83184363275331
CO-55
1 27844U 03031E   26241.44525178  .00000235  00000-0  12077-3 0  9993
2 27844  98.6767 249.0927 0009117 340.1621  19.9203 14.24373969202105
RS-22
1 27939U 03042A   26241.90169903  .00000806  00000-0  13206-3 0  9990
2 27939  98.3480  68.3601 0012139  39.8923  88.2764 14.73579157226406
CO-65
1 32785U 08021C   26241.88259010  .00004595  00000-0  28627-3 0  9995
2 32785  97.8352 224.8966 0010079 129.9998 230.2116 15.10047776996313
CO-66
1 32791U 08021J   26241.45874603  .00020555  00000-0  60571-3 0  9994
2 32791  97.7551 243.0020 0004487  73.0422 287.1312 15.35056115998529
RS-30
1 32953U 08025A   26241.81641545  .00000042  00000-0  22764-3 0  9996
2 32953  82.5061 309.6494 0020358 148.5372 211.6930 12.43182262828842
SRMSAT
1 37841U 11058D   26241.58985134  .00000377  00000-0  60990-4 0  9991
2 37841  19.9731 335.1734 0011647 292.3356  96.1119 14.11589288768207
ZACUBE-1
1 39417U 13066B   26241.85146806  .00006073  00000-0  46371-3 0  9993
2 39417  97.8067 204.5457 0041461   6.6899 353.4870 15.01667849691782
Delfi-N3xt
1 39428U 13066N   26241.71172794  .00008577  00000-0  73191-3 0  9996
2 39428  97.8292 161.9774 0072328 323.0805  36.5449 14.95920180685619
GOMX-1
1 39430U 13066Q   26241.78985206  .00001774  00000-0  27099-3 0  9994
2 39430  97.6444  77.6135 0127485 200.3809 159.2285 14.69646654680729
LO-74
1 39440U 13066AA  26241.80341549  .00003481  00000-0  31999-3 0  9995
2 39440  97.8956 191.1367 0058041 141.8745 218.6603 14.94183734687980
AO-73
1 39444U 13066AE  26241.88057917  .00008469  00000-0  51225-3 0  9995
2 39444  97.8350 214.9426 0034311 315.0260  44.8191 15.10411016690782
DTUSAT-2
1 40030U 14033W   26239.48315115  .00007691  00000-0  40590-3 0  9992
2 40030  98.0902 241.7982 0007693   5.5087 354.6227 15.15830355663482
LILACSAT-2
1 40908U 15049K   26241.87313343  .00019816  00000-0  30994-3 0  9990
2 40908  97.4583 281.6126 0005889   0.6882 359.4379 15.53789149607183
Lapan A3
1 41603U 16040E   26241.87020317  .00002859  00000-0  90400-4 0  9999
2 41603  97.1546 235.6385 0012009 108.0080 252.2473 15.33514666566102
CAS-2T
1 41847U 16066G   26241.64997166  .00000567  00000-0  89684-4 0  9993
2 41847  98.3773 316.5442 0340016 266.6292  89.5956 14.44819535515406
TechnoSat
1 42829U 17042E   26241.37791385  .00003754  00000-0  26568-3 0  9996
2 42829  97.4380  36.3089 0016993 199.9894 160.0670 15.05322810497719
AO-91
1 43017U 17073E   26241.34594629  .00010147  00000-0  42949-3 0  9994
2 43017  97.4589 107.0677 0149648  75.9562 285.8253 15.13674918476457
S-Net D
1 43186U 18014G   26241.68006208  .00005393  00000-0  27400-3 0  9997
2 43186  97.5274 146.0090 0009616 117.3724 242.8489 15.17261276469908
S-Net B
1 43187U 18014H   26241.69300191  .00005232  00000-0  26616-3 0  9997
2 43187  97.5279 146.0104 0010321 113.7515 246.4802 15.17228973469909
S-Net A
1 43188U 18014J   26241.67854002  .00005293  00000-0  26888-3 0  9999
2 43188  97.5290 146.2190 0010185 114.3634 245.8663 15.17269452469902
S-Net C
1 43189U 18014K   26241.69732220  .00005121  00000-0  26057-3 0  9997
2 43189  97.5306 146.3237 0011650 108.6728 251.5771 15.17218759468459
Ten-Koh
1 43677U 18084G   26241.48562231  .00002281  00000-0  17348-3 0  9993
2 43677  98.0755  76.9464 0008572 227.9325 132.1170 15.03199235427175
PO-101
1 43678U 18084H   26241.85329014  .00001421  00000-0  11737-3 0  9996
2 43678  98.1191  81.3034 0010569 284.9091  75.0961 15.00687170427266
QO-100
1 43700U 18090A   26241.82721247  .00000147  00000-0  00000+0 0  9991
2 43700   0.0102 113.8829 0002637  77.9409 109.7933  1.00273346 28418
MinXSS-2
1 43758U 18099A   26241.65077097  .00051726  00000-0  85531-3 0  9996
2 43758  97.4478 320.3406 0005787   1.9753 358.1521 15.52043456425504
AO-95
1 43770U 18099N   26241.64708656  .00013504  00000-0  49410-3 0  9999
2 43770  97.4318 301.6699 0010004  89.9522 270.2864 15.28127129424433
SNUSat 2
1 43782U 18099AA  26241.62210142  .00009156  00000-0  39339-3 0  9995
2 43782  97.3994 293.9027 0011052  46.2014 314.0135 15.22841007424204
SnugLite
1 43784U 18099AC  26241.62446189  .00011287  00000-0  40828-3 0  9992
2 43784  97.3803 295.2297 0003775  55.3854 304.7741 15.28588183424539
ITASat 1
1 43786U 18099AE  26241.58118382  .00006611  00000-0  31052-3 0  9994
2 43786  97.3963 291.6435 0014066  96.1496 264.1342 15.19860338424050
EAGLET 1
1 43790U 18099AJ  26241.58687106  .00003637  00000-0  20689-3 0  9993
2 43790  97.4167 289.3096 0012794  92.3170 267.9526 15.13417722423437
ESEO
1 43792U 18099AL  26241.81362404  .00000771  00000-0  59196-4 0  9994
2 43792  97.3929 276.0397 0013982  83.2884 276.9933 15.04435234422879
JO-97
1 43803U 18099AX  26241.11861461  .00018567  00000-0  53408-3 0  9998
2 43803  97.4065 304.2943 0005615  27.2782 332.8756 15.35824892424811
Suomi 100
1 43804U 18099AY  26241.42833707  .00015867  00000-0  54801-3 0  9993
2 43804  97.4121 301.6039 0010066  30.6760 329.5067 15.29977894424612
ISAT
1 43879U 18111D   26241.35911902  .00366426  00000-0  15119-2 0  9994
2 43879  97.5804 183.1379 0007703 107.6076 252.6035 15.84945544422675
UWE-4
1 43880U 18111E   26241.76122860  .00044997  00000-0  78278-3 0  9990
2 43880  97.5825 173.7832 0009608  68.5449 291.6826 15.50611960422164
Sparrow
1 43881U 18111F   26228.98401838  .16116594  28263-5  19760-3 0  9992
2 43881  97.5857 177.1140 0010462 202.8700 157.2139 16.49385238421037
Prox-1
1 44339U 19036A   26241.58704269  .00014551  00000-0  13658-2 0  9999
2 44339  23.9959 343.3318 0005613 158.6727 201.4007 14.92163949384443
Taurus 1
1 44530U 19059C   26241.83765924  .00006782  00000-0  10689-2 0  9998
2 44530  98.6481  51.3049 0009639  82.6809 277.5491 14.72766495369482
TO-108
1 44881U 19093C   26241.81683133  .00000730  00000-0  88243-4 0  9994
2 44881  97.7482 312.2357 0012899 198.6964 161.3780 14.86613998362359
RS-44
1 44909U 19096E   26241.57202440  .00000034  00000-0  98536-4 0  9992
2 44909  82.5201 290.9486 0216919 333.0695  25.9277 12.79749068311731
SALSAT
1 46495U 20068K   26241.77398234  .00008176  00000-0  27763-3 0  9992
2 46495  97.8879 249.3842 0010802  51.9217 308.2995 15.30729883326616
CSS (TIANHE-1)
1 48274U 21035A   26241.44818444  .00019640  00000-0  24525-3 0  9999
2 48274  41.4674 237.2746 0001864 254.4037 105.6596 15.59384972304606
TeikyoSat 4
1 49396U 21102B   26241.56304166  .00001777  00000-0  11381-3 0  9992
2 49396  97.3646 268.1922 0013177  46.4183 313.8138 15.09730201263795
Z-Sat
1 49399U 21102E   26241.86942109  .00003188  00000-0  15616-3 0  9996
2 49399  97.3284 274.9624 0016182 356.9268   3.1865 15.18758859264620
KOSEN 1
1 49402U 21102H   26241.84771229  .00007072  00000-0  26296-3 0  9994
2 49402  97.3128 282.5988 0011823 311.7525  48.2703 15.27761812265267
HO-113
1 50466U 21131B   26241.84565138  .00000358  00000-0  12416-3 0  9997
2 50466  98.4985 333.8360 0003122 224.6331 135.4607 14.41414054245725
SNUGLITE 2
1 52899U 22065F   26241.68830682  .00000875  00000-0  17442-3 0  9995
2 52899  98.2307  26.4359 0008169 145.4934 214.6801 14.64462920221754
UmKA 1 (RS40S)
1 57172U 23091G   26241.83301035  .00005872  00000-0  26340-3 0  9995
2 57172  97.4983 300.2581 0011519 215.9183 144.1279 15.21536010175206
CubeBel-2 (EU11S)
1 57175U 23091K   26241.82626269  .00011837  00000-0  40007-3 0  9990
2 57175  97.4984 305.7620 0008774 204.4215 155.6611 15.30768864175562
RS-38S
1 57189U 23091Z   26241.83996498  .00018984  00000-0  50638-3 0  9991
2 57189  97.5032 312.8930 0007543 156.2312 203.9282 15.38160573176002
